sat.trackr.live / text

‹ back to catalog

MOMENTUS-X1

NORAD 44408 · 2019-038Y

PAYLOAD ACTIVE UNKNOWN

§ Identity

Operator
Country
US
Launch date
2019-07-05
Launch site
VOSTO
Launch vehicle
Mass (kg)
RCS (m²)

External: N2YO · Heavens-Above · Gunter

§ Orbital elements

Epoch: 2026-05-25T02:28:35.829408Z

Period
92.04 min
Inclination
97.6778°
Eccentricity
0.0009792
Mean motion
15.64476898 rev/d
Perigee alt
368.1 km
Apogee alt
381.4 km
Semi-major
6,752.9 km
B*
4.2789e-4
RAAN
188.4108°
Arg perigee
102.2108°
Mean anomaly
258.0247°
Rev number
38,294

§ Raw data

MOMENTUS-X11 44408U 19038Y   26145.10319247  .00041206  00000+0  42789-3 0  99912 44408  97.6778 188.4108 0009792 102.2108 258.0247 15.64476898382949

JSON: /api/v1/satellites/44408 · /tle

For live sub-satellite position, see the globe view (requires WebGL).

§ Visibility from observer

Set your observer location to see the next 7 days of passes ≥ 10°. The values pass through the URL so the page stays shareable.

No JS? Fill the form by hand. The geolocation button needs JavaScript.

§ Radio — SatNOGS DB

ModeDescriptionDownlinkUplink
FM Mode U - Unknown 400.500 MHz

1 transmitter · refreshed weekly from db.satnogs.org